Time,TemperatureF,DewpointF,PressureIn,WindDirection,WindDirectionDegrees,WindSpeedMPH,WindSpeedGustMPH,Humidity,HourlyPrecipIn,Conditions,Clouds,dailyrainin,SoftwareType,DateUTC
2014-01-25 00:10:00,22.1,3.0,30.10,ESE,111,3.0,10.0,44,0.00,,,0.00,weatherlink.com 1.10,2014-01-25 05:10:00,
2014-01-25 00:25:00,22.5,3.0,30.12,SE,141,0.0,8.0,43,0.00,,,0.00,weatherlink.com 1.10,2014-01-25 05:25:00,
2014-01-25 00:40:00,22.4,3.0,30.12,SSE,150,0.0,3.0,43,0.00,,,0.00,weatherlink.com 1.10,2014-01-25 05:40:00,
2014-01-25 00:55:00,22.2,3.0,30.10,SSE,158,1.0,4.0,44,0.00,,,0.00,weatherlink.com 1.10,2014-01-25 05:55:00,
2014-01-25 01:10:00,23.2,3.0,30.08,SSE,154,0.0,7.0,41,0.00,,,0.00,weatherlink.com 1.10,2014-01-25 06:10:00,
2014-01-25 01:25:00,23.8,3.0,30.07,South,174,3.0,5.0,40,0.00,,,0.00,weatherlink.com 1.10,2014-01-25 06:25:00,
2014-01-25 01:40:00,25.6,1.0,30.06,SSE,153,7.0,10.0,34,0.00,,,0.00,weatherlink.com 1.10,2014-01-25 06:40:00,
2014-01-25 01:55:00,26.3,1.0,30.05,SSE,163,0.0,15.0,33,0.00,,,0.00,weatherlink.com 1.10,2014-01-25 06:55:00,
2014-01-25 02:10:00,26.6,1.0,30.04,South,182,7.0,12.0,33,0.00,,,0.00,weatherlink.com 1.10,2014-01-25 07:10:00,
2014-01-25 02:25:00,26.9,1.0,30.04,SSW,213,6.0,18.0,32,0.00,,,0.00,weatherlink.com 1.10,2014-01-25 07:25:00,
2014-01-25 02:40:00,27.0,1.0,30.03,WSW,245,6.0,15.0,33,0.00,,,0.00,weatherlink.com 1.10,2014-01-25 07:40:00,
2014-01-25 02:55:00,27.0,1.0,30.03,SW,220,9.0,19.0,33,0.00,,,0.00,weatherlink.com 1.10,2014-01-25 07:55:00,
2014-01-25 03:10:00,27.0,1.0,30.01,SSW,201,7.0,17.0,33,0.00,,,0.00,weatherlink.com 1.10,2014-01-25 08:10:00,
2014-01-25 03:25:00,26.9,1.0,30.00,SSE,165,5.0,22.0,33,0.00,,,0.00,weatherlink.com 1.10,2014-01-25 08:25:00,
2014-01-25 03:40:00,27.0,1.0,29.99,WSW,252,2.0,20.0,33,0.00,,,0.00,weatherlink.com 1.10,2014-01-25 08:40:00,
2014-01-25 03:56:00,27.1,1.0,29.97,SSW,212,7.0,18.0,33,0.00,,,0.00,weatherlink.com 1.10,2014-01-25 08:56:00,
2014-01-25 04:11:00,27.3,1.0,29.95,South,182,5.0,18.0,32,0.00,,,0.00,weatherlink.com 1.10,2014-01-25 09:11:00,
2014-01-25 04:26:00,27.5,1.0,29.94,SSE,153,3.0,18.0,32,0.00,,,0.00,weatherlink.com 1.10,2014-01-25 09:26:00,
2014-01-25 04:41:00,27.7,2.0,29.93,South,178,3.0,18.0,33,0.00,,,0.00,weatherlink.com 1.10,2014-01-25 09:41:00,
2014-01-25 04:56:00,27.8,2.0,29.92,SSW,209,1.0,19.0,33,0.00,,,0.00,weatherlink.com 1.10,2014-01-25 09:56:00,
2014-01-25 05:11:00,27.8,3.0,29.92,South,175,5.0,14.0,34,0.00,,,0.00,weatherlink.com 1.10,2014-01-25 10:11:00,
2014-01-25 05:26:00,27.7,3.0,29.92,SSE,163,12.0,16.0,35,0.00,,,0.00,weatherlink.com 1.10,2014-01-25 10:26:00,
2014-01-25 05:41:00,27.5,4.0,29.91,SW,231,13.0,16.0,37,0.00,,,0.00,weatherlink.com 1.10,2014-01-25 10:41:00,
2014-01-25 05:56:00,26.7,10.0,29.90,South,178,12.0,22.0,49,0.00,,,0.00,weatherlink.com 1.10,2014-01-25 10:56:00,
2014-01-25 06:11:00,25.0,14.0,29.88,SSE,148,3.0,17.0,64,0.00,,,0.00,weatherlink.com 1.10,2014-01-25 11:11:00,
2014-01-25 06:26:00,24.0,17.0,29.88,South,175,4.0,15.0,73,0.00,,,0.00,weatherlink.com 1.10,2014-01-25 11:26:00,
2014-01-25 06:41:00,23.9,17.0,29.86,ESE,118,8.0,13.0,74,0.00,,,0.00,weatherlink.com 1.10,2014-01-25 11:41:00,
2014-01-25 06:56:00,24.7,16.0,29.86,SSW,192,7.0,8.0,70,0.00,,,0.00,weatherlink.com 1.10,2014-01-25 11:56:00,
2014-01-25 07:11:00,25.8,14.0,29.87,South,186,6.0,10.0,62,0.00,,,0.00,weatherlink.com 1.10,2014-01-25 12:11:00,
2014-01-25 07:26:00,25.7,15.0,29.86,SSW,194,2.0,14.0,65,0.00,,,0.00,weatherlink.com 1.10,2014-01-25 12:26:00,
2014-01-25 07:41:00,25.3,17.0,29.86,SSW,196,5.0,19.0,70,0.00,,,0.00,weatherlink.com 1.10,2014-01-25 12:41:00,
2014-01-25 07:56:00,24.8,19.0,29.86,South,175,3.0,22.0,79,0.00,,,0.00,weatherlink.com 1.10,2014-01-25 12:56:00,
2014-01-25 08:11:00,23.8,20.0,29.86,SSE,157,6.0,16.0,86,0.00,,,0.00,weatherlink.com 1.10,2014-01-25 13:11:00,
2014-01-25 08:26:00,23.3,21.0,29.86,SSW,196,7.0,11.0,89,0.00,,,0.00,weatherlink.com 1.10,2014-01-25 13:26:00,
2014-01-25 08:41:00,23.1,21.0,29.86,SSE,150,0.0,12.0,91,0.00,,,0.00,weatherlink.com 1.10,2014-01-25 13:41:00,
2014-01-25 08:56:00,23.1,21.0,29.86,South,177,1.0,11.0,92,0.00,,,0.00,weatherlink.com 1.10,2014-01-25 13:56:00,
2014-01-25 09:11:00,23.2,22.0,29.85,SE,135,0.0,12.0,93,0.00,,,0.00,weatherlink.com 1.10,2014-01-25 14:11:00,
2014-01-25 09:26:00,23.3,22.0,29.85,South,169,5.0,7.0,93,0.00,,,0.00,weatherlink.com 1.10,2014-01-25 14:26:00,
2014-01-25 09:41:00,23.4,22.0,29.85,SSW,192,1.0,11.0,94,0.00,,,0.00,weatherlink.com 1.10,2014-01-25 14:41:00,
2014-01-25 09:56:00,23.5,22.0,29.85,South,180,4.0,11.0,94,0.00,,,0.00,weatherlink.com 1.10,2014-01-25 14:56:00,
2014-01-25 10:11:00,23.6,22.0,29.85,SSE,155,3.0,9.0,94,0.00,,,0.00,weatherlink.com 1.10,2014-01-25 15:11:00,
2014-01-25 10:26:00,24.0,23.0,29.85,South,185,3.0,7.0,94,0.00,,,0.00,weatherlink.com 1.10,2014-01-25 15:26:00,
2014-01-25 10:41:00,24.4,23.0,29.85,SSW,205,2.0,7.0,95,0.00,,,0.00,weatherlink.com 1.10,2014-01-25 15:41:00,
2014-01-25 10:56:00,24.8,24.0,29.86,South,182,2.0,8.0,95,0.00,,,0.00,weatherlink.com 1.10,2014-01-25 15:56:00,
2014-01-25 11:11:00,25.1,24.0,29.86,South,174,1.0,10.0,94,0.00,,,0.00,weatherlink.com 1.10,2014-01-25 16:11:00,
2014-01-25 11:26:00,25.5,24.0,29.85,SSW,209,7.0,10.0,93,0.00,,,0.00,weatherlink.com 1.10,2014-01-25 16:26:00,
2014-01-25 11:41:00,26.2,24.0,29.84,SSE,162,3.0,11.0,92,0.00,,,0.00,weatherlink.com 1.10,2014-01-25 16:41:00,
2014-01-25 11:56:00,27.0,25.0,29.84,South,191,5.0,13.0,91,0.00,,,0.00,weatherlink.com 1.10,2014-01-25 16:56:00,
2014-01-25 12:11:00,28.0,25.0,29.83,South,172,11.0,15.0,88,0.00,,,0.00,weatherlink.com 1.10,2014-01-25 17:11:00,
2014-01-25 12:26:00,28.7,25.0,29.82,SSW,196,4.0,12.0,86,0.00,,,0.00,weatherlink.com 1.10,2014-01-25 17:26:00,
2014-01-25 12:41:00,29.6,26.0,29.81,SSE,153,1.0,14.0,85,0.00,,,0.00,weatherlink.com 1.10,2014-01-25 17:41:00,
2014-01-25 12:57:00,30.3,25.0,29.80,SSW,206,1.0,15.0,81,0.00,,,0.00,weatherlink.com 1.10,2014-01-25 17:57:00,
2014-01-25 13:12:00,31.1,25.0,29.79,SW,215,9.0,12.0,79,0.02,,,0.02,weatherlink.com 1.10,2014-01-25 18:12:00,
2014-01-25 13:27:00,31.3,25.0,29.78,SE,142,9.0,16.0,76,0.03,,,0.03,weatherlink.com 1.10,2014-01-25 18:27:00,
2014-01-25 13:42:00,32.0,25.0,29.79,South,184,4.0,11.0,75,0.04,,,0.04,weatherlink.com 1.10,2014-01-25 18:42:00,
2014-01-25 13:57:00,32.9,25.0,29.77,SSW,209,3.0,10.0,73,0.04,,,0.04,weatherlink.com 1.10,2014-01-25 18:57:00,
2014-01-25 14:12:00,33.3,24.0,29.76,SW,221,6.0,17.0,69,0.02,,,0.04,weatherlink.com 1.10,2014-01-25 19:12:00,
2014-01-25 14:27:00,33.4,24.0,29.77,SW,215,15.0,15.0,68,0.02,,,0.05,weatherlink.com 1.10,2014-01-25 19:27:00,
2014-01-25 14:42:00,33.9,24.0,29.77,South,190,6.0,17.0,67,0.02,,,0.06,weatherlink.com 1.10,2014-01-25 19:42:00,
2014-01-25 14:57:00,35.3,24.0,29.76,SSE,167,4.0,12.0,64,0.02,,,0.06,weatherlink.com 1.10,2014-01-25 19:57:00,
2014-01-25 15:12:00,36.1,24.0,29.76,SSW,202,2.0,12.0,61,0.03,,,0.07,weatherlink.com 1.10,2014-01-25 20:12:00,
2014-01-25 15:27:00,36.8,24.0,29.76,SSW,207,7.0,14.0,59,0.03,,,0.08,weatherlink.com 1.10,2014-01-25 20:27:00,
2014-01-25 15:42:00,37.5,24.0,29.75,South,188,1.0,17.0,58,0.02,,,0.08,weatherlink.com 1.10,2014-01-25 20:42:00,
2014-01-25 15:57:00,37.4,24.0,29.75,South,174,3.0,12.0,59,0.02,,,0.08,weatherlink.com 1.10,2014-01-25 20:57:00,
2014-01-25 16:12:00,37.0,24.0,29.76,South,178,3.0,10.0,60,0.02,,,0.09,weatherlink.com 1.10,2014-01-25 21:12:00,
2014-01-25 16:27:00,37.0,24.0,29.77,SSW,212,7.0,10.0,59,0.01,,,0.09,weatherlink.com 1.10,2014-01-25 21:27:00,
2014-01-25 16:42:00,37.0,25.0,29.78,SSW,211,1.0,9.0,61,0.01,,,0.09,weatherlink.com 1.10,2014-01-25 21:42:00,
2014-01-25 16:57:00,37.3,25.0,29.78,West,261,1.0,12.0,61,0.01,,,0.09,weatherlink.com 1.10,2014-01-25 21:57:00,
2014-01-25 17:12:00,37.3,25.0,29.78,SW,216,7.0,12.0,61,0.00,,,0.09,weatherlink.com 1.10,2014-01-25 22:12:00,
2014-01-25 17:27:00,37.5,26.0,29.80,SSW,197,8.0,14.0,64,0.00,,,0.09,weatherlink.com 1.10,2014-01-25 22:27:00,
2014-01-25 17:42:00,35.1,30.0,29.82,SW,234,4.0,26.0,83,0.00,,,0.09,weatherlink.com 1.10,2014-01-25 22:42:00,
2014-01-25 17:57:00,33.9,31.0,29.83,WSW,238,6.0,13.0,89,0.00,,,0.09,weatherlink.com 1.10,2014-01-25 22:57:00,
2014-01-25 18:12:00,33.8,32.0,29.84,SSW,202,4.0,14.0,91,0.00,,,0.09,weatherlink.com 1.10,2014-01-25 23:12:00,
2014-01-25 18:27:00,34.0,31.0,29.84,WSW,238,6.0,17.0,90,0.00,,,0.09,weatherlink.com 1.10,2014-01-25 23:27:00,
2014-01-25 18:42:00,34.4,31.0,29.86,West,261,4.0,16.0,86,0.00,,,0.09,weatherlink.com 1.10,2014-01-25 23:42:00,
2014-01-25 18:57:00,34.3,30.0,29.87,WSW,257,4.0,9.0,84,0.00,,,0.09,weatherlink.com 1.10,2014-01-25 23:57:00,
2014-01-25 19:12:00,34.1,30.0,29.88,SW,218,1.0,10.0,83,0.00,,,0.09,weatherlink.com 1.10,2014-01-26 00:12:00,
2014-01-25 19:27:00,33.7,29.0,29.89,SW,234,1.0,13.0,83,0.00,,,0.09,weatherlink.com 1.10,2014-01-26 00:27:00,
2014-01-25 19:42:00,33.3,28.0,29.90,West,265,6.0,7.0,82,0.00,,,0.09,weatherlink.com 1.10,2014-01-26 00:42:00,
2014-01-25 19:57:00,32.8,28.0,29.91,WSW,248,3.0,8.0,82,0.00,,,0.09,weatherlink.com 1.10,2014-01-26 00:57:00,
2014-01-25 20:12:00,32.5,26.0,29.93,WSW,242,4.0,11.0,78,0.00,,,0.09,weatherlink.com 1.10,2014-01-26 01:12:00,
2014-01-25 20:27:00,32.0,16.0,29.94,West,275,5.0,16.0,51,0.00,,,0.09,weatherlink.com 1.10,2014-01-26 01:27:00,
2014-01-25 20:42:00,31.1,14.0,29.95,WSW,243,1.0,13.0,50,0.00,,,0.09,weatherlink.com 1.10,2014-01-26 01:42:00,
2014-01-25 20:57:00,30.4,14.0,29.95,West,260,12.0,12.0,50,0.00,,,0.09,weatherlink.com 1.10,2014-01-26 01:57:00,
2014-01-25 21:12:00,30.0,13.0,29.96,WSW,248,4.0,15.0,49,0.00,,,0.09,weatherlink.com 1.10,2014-01-26 02:12:00,
2014-01-25 21:27:00,29.3,13.0,29.97,SSW,211,2.0,7.0,50,0.00,,,0.09,weatherlink.com 1.10,2014-01-26 02:27:00,
2014-01-25 21:42:00,28.5,12.0,29.98,WNW,302,0.0,6.0,51,0.00,,,0.09,weatherlink.com 1.10,2014-01-26 02:42:00,
2014-01-25 21:57:00,28.9,11.0,29.99,WSW,241,2.0,14.0,47,0.00,,,0.09,weatherlink.com 1.10,2014-01-26 02:57:00,
2014-01-25 22:12:00,28.0,11.0,30.00,West,259,1.0,9.0,50,0.00,,,0.09,weatherlink.com 1.10,2014-01-26 03:12:00,
2014-01-25 22:27:00,27.5,11.0,30.01,WNW,288,4.0,8.0,50,0.00,,,0.09,weatherlink.com 1.10,2014-01-26 03:27:00,
2014-01-25 22:42:00,26.7,10.0,30.02,WNW,287,8.0,8.0,50,0.00,,,0.09,weatherlink.com 1.10,2014-01-26 03:42:00,
2014-01-25 22:57:00,26.1,10.0,30.02,West,262,1.0,6.0,50,0.00,,,0.09,weatherlink.com 1.10,2014-01-26 03:57:00,
2014-01-25 23:12:00,24.9,10.0,30.02,WNW,287,1.0,2.0,53,0.00,,,0.09,weatherlink.com 1.10,2014-01-26 04:12:00,
2014-01-25 23:27:00,24.6,9.0,30.01,West,275,1.0,6.0,51,0.00,,,0.09,weatherlink.com 1.10,2014-01-26 04:27:00,
2014-01-25 23:42:00,23.9,8.0,30.01,West,277,0.0,3.0,52,0.00,,,0.09,weatherlink.com 1.10,2014-01-26 04:42:00,
2014-01-25 23:57:00,23.1,9.0,30.02,West,277,0.0,0.0,55,0.00,,,0.00,weatherlink.com 1.10,2014-01-26 04:57:00,